GW1454 Weather Reports


Display with metric or nautical units.
time (UTC)temp
F
wind
direction
speed
MPH
gust
MPH
rain 1hr
in
rain 24hr
in
rain mn
in
humidity
%
barometer
mb
20230129195546 52 0 0.0 1.0 0.00 0.00 0.00 55 1022.9
20230129195044 52 67 0.0 4.0 0.00 0.00 0.00 57 1022.9
20230129194553 52 0 1.0 4.0 0.00 0.00 0.00 55 1023.1
20230129194044 52 75 1.0 4.0 0.00 0.00 0.00 54 1023.2
20230129193548 52 0 0.0 4.0 0.00 0.00 0.00 54 1023.2
20230129193056 51 91 0.0 4.0 0.00 0.00 0.00 53 1023.4
20230129192544 51 74 0.0 3.0 0.00 0.00 0.00 54 1023.5
20230129192045 51 69 0.0 3.0 0.00 0.00 0.00 56 1023.6
20230129191603 51 0 0.0 3.0 0.00 0.00 0.00 53 1023.6
20230129191045 51 0 1.0 5.0 0.00 0.00 0.00 53 1023.7
20230129190546 51 85 2.0 5.0 0.00 0.00 0.00 50 1023.7
20230129190107 51 111 1.0 4.0 0.00 0.00 0.00 51 1023.8
20230129185544 51 91 1.0 4.0 0.00 0.00 0.00 52 1024.0
20230129185045 51 44 2.0 3.0 0.00 0.00 0.00 51 1024.1
20230129184548 51 0 0.0 3.0 0.00 0.00 0.00 51 1024.2
20230129184044 51 67 1.0 3.0 0.00 0.00 0.00 52 1024.4
20230129183544 51 72 0.0 4.0 0.00 0.00 0.00 52 1024.3
20230129183049 51 0 0.0 4.0 0.00 0.00 0.00 52 1024.4
20230129182544 51 73 2.0 5.0 0.00 0.00 0.00 52 1024.6
20230129182045 51 0 1.0 5.0 0.00 0.00 0.00 53 1024.7
20230129181551 51 80 1.0 4.0 0.00 0.00 0.00 52 1024.8
20230129181048 51 61 1.0 3.0 0.00 0.00 0.00 52 1024.9
20230129180544 51 91 1.0 3.0 0.00 0.00 0.00 53 1025.1
20230129180053 51 92 1.0 3.0 0.00 0.00 0.00 53 1025.2
20230129175545 50 91 1.0 3.0 0.00 0.00 0.00 54 1025.2
20230129175045 50 70 1.0 3.0 0.00 0.00 0.00 54 1025.2
20230129174546 50 152 0.0 2.0 0.00 0.00 0.00 54 1025.1
20230129174047 50 40 1.0 2.0 0.00 0.00 0.00 55 1025.3
20230129173543 50 105 1.0 2.0 0.00 0.00 0.00 56 1025.4
20230129173055 50 98 0.0 2.0 0.00 0.00 0.00 57 1025.5
20230129172547 50 92 0.0 2.0 0.00 0.00 0.00 56 1025.6
20230129172044 50 111 0.0 3.0 0.00 0.00 0.00 57 1025.7
20230129171554 49 101 0.0 3.0 0.00 0.00 0.00 57 1025.8
20230129171043 50 80 1.0 3.0 0.00 0.00 0.00 56 1025.8
20230129170544 50 0 0.0 4.0 0.00 0.00 0.00 57 1025.9
20230129170052 49 103 1.0 4.0 0.00 0.00 0.00 59 1026.0
20230129165543 49 34 0.0 3.0 0.00 0.00 0.00 60 1026.1
20230129165044 48 0 0.0 3.0 0.00 0.00 0.00 60 1026.0
20230129164623 48 69 0.0 1.0 0.00 0.00 0.00 61 1026.1
20230129164043 48 107 0.0 1.0 0.00 0.00 0.00 60 1026.2
20230129163543 48 106 0.0 1.0 0.00 0.00 0.00 60 1026.4
20230129163049 48 107 0.0 1.0 0.00 0.00 0.00 59 1026.6
20230129162545 47 0 0.0 1.0 0.00 0.00 0.00 60 1026.9
20230129162044 47 0 0.0 1.0 0.00 0.00 0.00 60 1026.7
20230129161552 47 106 0.0 2.0 0.00 0.00 0.00 61 1026.9
20230129161042 47 0 0.0 2.0 0.00 0.00 0.00 60 1026.8
20230129160542 47 0 1.0 2.0 0.00 0.00 0.00 61 1027.0
20230129160058 47 120 0.0 2.0 0.00 0.00 0.00 61 1027.0
20230129155543 47 120 0.0 2.0 0.00 0.00 0.00 62 1027.0
20230129155044 46 0 0.0 1.0 0.00 0.00 0.00 63 1027.1
20230129154546 46 126 0.0 1.0 0.00 0.00 0.00 64 1027.2
20230129154043 46 126 0.0 8.0 0.00 0.00 0.00 64 1027.2
20230129153544 46 0 1.0 8.0 0.00 0.00 0.00 66 1027.3
20230129153051 46 0 0.0 2.0 0.00 0.00 0.00 66 1027.3
20230129152546 46 0 0.0 2.0 0.00 0.00 0.00 66 1027.2
20230129152046 45 101 0.0 1.0 0.00 0.00 0.00 68 1027.3
20230129151600 45 0 0.0 1.0 0.00 0.00 0.00 69 1027.0
20230129151047 44 100 0.0 1.0 0.00 0.00 0.00 68 1027.2
20230129150546 44 0 0.0 1.0 0.00 0.00 0.00 69 1027.1
20230129150104 43 0 0.0 0.0 0.00 0.00 0.00 70 1027.1
20230129145546 43 0 0.0 0.0 0.00 0.00 0.00 72 1027.0
20230129145046 43 0 0.0 1.0 0.00 0.00 0.00 72 1027.0
20230129144603 42 0 0.0 1.0 0.00 0.00 0.00 72 1027.1
20230129144047 42 0 0.0 1.0 0.00 0.00 0.00 73 1027.1
20230129143546 42 100 0.0 1.0 0.00 0.00 0.00 75 1027.0
20230129143059 42 100 0.0 1.0 0.00 0.00 0.00 73 1026.9
20230129142546 42 0 0.0 1.0 0.00 0.00 0.00 72 1026.9
20230129142047 42 100 0.0 2.0 0.00 0.00 0.00 72 1026.7
20230129141600 41 99 0.0 2.0 0.00 0.00 0.00 72 1026.6
20230129141046 41 82 0.0 1.0 0.00 0.00 0.00 72 1026.5
20230129140546 41 74 0.0 1.0 0.00 0.00 0.00 72 1026.3
20230129140100 41 89 0.0 1.0 0.00 0.00 0.00 73 1026.1
20230129135549 41 89 0.0 2.0 0.00 0.00 0.00 73 1026.2
20230129135046 41 93 0.0 2.0 0.00 0.00 0.00 73 1026.0
20230129134552 40 93 0.0 3.0 0.00 0.00 0.00 73 1026.0
20230129134046 40 0 0.0 3.0 0.00 0.00 0.00 74 1025.9
20230129133546 40 0 0.0 3.0 0.00 0.00 0.00 73 1025.8
20230129133058 40 86 0.0 1.0 0.00 0.00 0.00 74 1025.9
20230129132546 39 86 0.0 2.0 0.00 0.00 0.00 75 1025.8
20230129132046 39 0 0.0 2.0 0.00 0.00 0.00 75 1025.7
20230129131606 39 22 0.0 2.0 0.00 0.00 0.00 75 1025.8
20230129131049 39 0 0.0 1.0 0.00 0.00 0.00 75 1025.9
20230129130549 39 79 0.0 1.0 0.00 0.00 0.00 77 1025.7
20230129130101 39 0 0.0 1.0 0.00 0.00 0.00 76 1025.7
20230129125545 38 0 0.0 1.0 0.00 0.00 0.00 76 1025.5
20230129125047 38 78 0.0 2.0 0.00 0.00 0.00 76 1025.6
20230129124605 38 78 0.0 2.0 0.00 0.00 0.00 75 1025.6
20230129124046 38 0 0.0 2.0 0.00 0.00 0.00 76 1025.7
20230129123544 38 78 0.0 2.0 0.00 0.00 0.00 76 1025.8
20230129123057 38 0 0.0 1.0 0.00 0.00 0.00 77 1025.8
20230129122544 38 84 0.0 1.0 0.00 0.00 0.00 77 1025.7
20230129122048 38 0 0.0 1.0 0.00 0.00 0.00 77 1025.7
20230129121556 38 0 0.0 1.0 0.00 0.00 0.00 78 1025.5
20230129121043 38 0 0.0 1.0 0.00 0.00 0.00 76 1025.4
20230129120546 38 0 0.0 1.0 0.00 0.00 0.00 75 1025.1
20230129120054 38 0 0.0 1.0 0.00 0.00 0.00 75 1025.1
20230129115543 38 0 0.0 1.0 0.00 0.00 0.00 74 1025.2
20230129115046 38 0 0.0 4.0 0.00 0.00 0.00 74 1025.2
20230129114551 38 56 0.0 4.0 0.00 0.00 0.00 75 1025.2
20230129114049 38 74 1.0 3.0 0.00 0.00 0.00 74 1025.3
20230129113547 38 38 0.0 3.0 0.00 0.00 0.00 74 1025.2
20230129113049 38 45 0.0 3.0 0.00 0.00 0.00 74 1025.1
20230129112545 38 84 0.0 2.0 0.00 0.00 0.00 73 1025.2
20230129112046 38 81 0.0 1.0 0.00 0.00 0.00 74 1025.2
20230129111600 38 0 0.0 1.0 0.00 0.00 0.00 75 1025.0
20230129111045 38 0 0.0 2.0 0.00 0.00 0.00 75 1025.0
20230129110546 38 65 0.0 2.0 0.00 0.00 0.00 74 1025.1
20230129110053 38 74 0.0 2.0 0.00 0.00 0.00 74 1025.1
20230129105546 38 0 0.0 2.0 0.00 0.00 0.00 74 1025.2
20230129105048 38 0 0.0 2.0 0.00 0.00 0.00 74 1025.2
20230129104554 37 92 0.0 3.0 0.00 0.00 0.00 75 1025.2
20230129104047 37 0 0.0 3.0 0.00 0.00 0.00 75 1025.1
20230129103546 37 64 0.0 2.0 0.00 0.00 0.00 77 1025.2
20230129103053 36 0 0.0 2.0 0.00 0.00 0.00 76 1025.4
20230129102546 36 0 0.0 2.0 0.00 0.00 0.00 76 1025.5
20230129102048 36 69 0.0 2.0 0.00 0.00 0.00 76 1025.6
20230129101555 36 36 0.0 2.0 0.00 0.00 0.00 76 1025.4
20230129101046 36 0 0.0 2.0 0.00 0.00 0.00 76 1025.5
20230129100547 36 0 0.0 1.0 0.00 0.00 0.00 77 1025.4
20230129100051 36 0 0.0 1.0 0.00 0.00 0.00 76 1025.3
20230129095544 36 0 0.0 1.0 0.00 0.00 0.00 76 1025.4
20230129095046 36 0 0.0 1.0 0.00 0.00 0.00 77 1025.5
20230129094554 36 0 0.0 0.0 0.00 0.00 0.00 77 1025.6
20230129094046 36 0 0.0 1.0 0.00 0.00 0.00 76 1025.8
20230129093546 36 0 0.0 1.0 0.00 0.00 0.00 76 1025.8
20230129093057 36 0 0.0 0.0 0.00 0.00 0.00 75 1025.8
20230129092546 36 0 0.0 0.0 0.00 0.00 0.00 74 1025.7
20230129092045 36 0 0.0 0.0 0.00 0.00 0.00 75 1025.6
20230129091552 36 0 0.0 2.0 0.00 0.00 0.00 75 1025.7
20230129091046 36 0 0.0 2.0 0.00 0.00 0.00 75 1025.8
20230129090546 36 0 0.0 1.0 0.00 0.00 0.00 75 1025.9
20230129090049 36 0 0.0 1.0 0.00 0.00 0.00 75 1025.7
20230129085546 36 74 0.0 1.0 0.00 0.00 0.00 76 1025.6
20230129085044 36 0 0.0 0.0 0.00 0.00 0.00 76 1025.8
20230129084550 36 0 0.0 1.0 0.00 0.00 0.00 76 1025.7
20230129084045 35 0 0.0 1.0 0.00 0.00 0.00 77 1025.7
20230129083544 35 0 0.0 0.0 0.00 0.00 0.00 77 1025.8
20230129083102 36 0 0.0 0.0 0.00 0.00 0.00 76 1025.9
20230129082543 36 0 0.0 0.0 0.00 0.00 0.00 76 1025.8
20230129082047 36 0 0.0 0.0 0.00 0.00 0.00 76 1026.1
20230129081549 36 0 0.0 0.0 0.00 0.00 0.00 76 1026.0
20230129081044 36 0 0.0 0.0 0.00 0.00 0.00 75 1026.1
20230129080549 36 0 0.0 0.0 0.00 0.00 0.00 74 1026.2
20230129080100 36 0 0.0 1.0 0.00 0.00 0.00 74 1026.2
20230129075550 36 0 0.0 1.0 0.00 0.00 0.00 73 1026.2
20230129075046 36 0 0.0 1.0 0.00 0.00 0.00 73 1026.2
20230129074551 36 0 0.0 1.0 0.00 0.00 0.00 74 1026.3
20230129074047 36 0 0.0 0.0 0.00 0.00 0.00 74 1026.4
20230129073546 36 0 0.0 1.0 0.00 0.00 0.00 74 1026.4
20230129073054 36 0 0.0 1.0 0.00 0.00 0.00 73 1026.5
20230129072545 36 0 0.0 1.0 0.00 0.00 0.00 73 1026.5
20230129072043 36 0 0.0 1.0 0.00 0.00 0.00 74 1026.6
20230129071600 36 0 0.0 1.0 0.00 0.00 0.00 74 1026.6
20230129071043 35 0 0.0 1.0 0.00 0.00 0.00 74 1026.8
20230129070544 36 0 0.0 0.0 0.00 0.00 0.00 74 1026.9
20230129070103 36 0 0.0 0.0 0.00 0.00 0.00 73 1026.9
20230129065546 36 0 0.0 1.0 0.00 0.00 0.00 72 1026.9
20230129065048 36 0 0.0 1.0 0.00 0.00 0.00 72 1026.9
20230129064551 36 0 0.0 1.0 0.00 0.00 0.00 73 1026.9
20230129064046 36 0 0.0 1.0 0.00 0.00 0.00 72 1026.9
20230129063546 36 0 0.0 1.0 0.00 0.00 0.00 72 1026.8
20230129063053 36 0 0.0 0.0 0.00 0.00 0.00 72 1026.8
20230129062544 36 0 0.0 0.0 0.00 0.00 0.00 73 1026.9
20230129062044 36 0 0.0 0.0 0.00 0.00 0.00 72 1026.9
20230129061552 36 0 0.0 1.0 0.00 0.00 0.00 72 1027.1
20230129061049 37 0 0.0 1.0 0.00 0.00 0.00 71 1026.9
20230129060544 37 0 0.0 0.0 0.00 0.00 0.00 70 1026.8
20230129060116 37 0 0.0 0.0 0.00 0.00 0.00 70 1026.8
20230129055544 36 0 0.0 0.0 0.00 0.00 0.00 71 1026.9
20230129055046 36 0 0.0 0.0 0.00 0.00 0.00 71 1027.0
20230129054611 37 0 0.0 0.0 0.00 0.00 0.00 70 1027.0
20230129054046 37 0 0.0 0.0 0.00 0.00 0.00 69 1027.0
20230129053547 38 0 0.0 0.0 0.00 0.00 0.00 68 1027.0
20230129053057 38 0 0.0 0.0 0.00 0.00 0.00 67 1027.0
20230129052546 38 0 0.0 0.0 0.00 0.00 0.00 67 1026.9
20230129052047 39 0 0.0 0.0 0.00 0.00 0.00 66 1027.0
20230129051609 39 0 0.0 0.0 0.00 0.00 0.00 66 1026.9
20230129051045 39 0 0.0 0.0 0.00 0.00 0.00 66 1027.0
20230129050547 39 0 0.0 0.0 0.00 0.00 0.00 65 1027.0
20230129050105 39 0 0.0 0.0 0.00 0.00 0.00 64 1027.2
20230129045546 39 0 0.0 0.0 0.00 0.00 0.00 63 1027.1
20230129045047 39 0 0.0 0.0 0.00 0.00 0.00 63 1027.3
20230129044554 39 0 0.0 0.0 0.00 0.00 0.00 63 1027.5
20230129044047 39 0 0.0 0.0 0.00 0.00 0.00 62 1027.4
20230129043545 40 0 0.0 0.0 0.00 0.00 0.00 61 1027.4
20230129043103 40 0 0.0 0.0 0.00 0.00 0.00 59 1027.3
20230129042547 40 0 0.0 0.0 0.00 0.00 0.00 59 1027.2
20230129042047 40 0 0.0 0.0 0.00 0.00 0.00 60 1027.3
20230129041554 40 0 0.0 0.0 0.00 0.00 0.00 60 1027.5
20230129041047 40 0 0.0 0.0 0.00 0.00 0.00 59 1027.6
20230129040547 40 0 0.0 0.0 0.00 0.00 0.00 59 1027.7
20230129040059 40 0 0.0 0.0 0.00 0.00 0.00 59 1027.8
20230129035545 40 0 0.0 0.0 0.00 0.00 0.00 58 1027.9
20230129035050 40 0 0.0 0.0 0.00 0.00 0.00 57 1028.0
20230129034552 41 0 0.0 0.0 0.00 0.00 0.00 57 1028.0
20230129034045 41 0 0.0 0.0 0.00 0.00 0.00 56 1027.9
20230129033543 41 0 0.0 0.0 0.00 0.00 0.00 56 1027.9
20230129033055 41 0 0.0 0.0 0.00 0.00 0.00 56 1027.9
20230129032544 41 0 0.0 0.0 0.00 0.00 0.00 56 1027.9
20230129032043 41 0 0.0 0.0 0.00 0.00 0.00 56 1027.9
20230129031555 41 0 0.0 1.0 0.00 0.00 0.00 58 1027.9
20230129031044 41 0 0.0 1.0 0.00 0.00 0.00 57 1027.9
20230129030543 40 0 0.0 2.0 0.00 0.00 0.00 58 1028.0
20230129030054 40 0 0.0 2.0 0.00 0.00 0.00 59 1027.9
20230129025546 40 0 0.0 0.0 0.00 0.00 0.00 59 1028.0
20230129025046 40 0 0.0 0.0 0.00 0.00 0.00 59 1028.0
20230129024558 40 0 0.0 0.0 0.00 0.00 0.00 59 1028.0
20230129024046 40 0 0.0 0.0 0.00 0.00 0.00 59 1028.0
20230129023545 40 0 0.0 0.0 0.00 0.00 0.00 58 1028.0
20230129023050 40 0 0.0 1.0 0.00 0.00 0.00 57 1028.0
20230129022544 40 0 0.0 1.0 0.00 0.00 0.00 57 1027.8
20230129022043 40 0 0.0 0.0 0.00 0.00 0.00 57 1028.0
20230129021603 40 0 0.0 0.0 0.00 0.00 0.00 56 1028.0
20230129021046 40 0 0.0 0.0 0.00 0.00 0.00 54 1028.0
20230129020544 41 0 0.0 0.0 0.00 0.00 0.00 53 1027.9
20230129020053 41 0 0.0 0.0 0.00 0.00 0.00 52 1027.9
20230129015546 42 0 0.0 0.0 0.00 0.00 0.00 52 1028.0
20230129015043 42 0 0.0 0.0 0.00 0.00 0.00 50 1028.0
20230129014553 42 0 0.0 0.0 0.00 0.00 0.00 50 1028.0
20230129014043 43 0 0.0 2.0 0.00 0.00 0.00 49 1028.0
20230129013546 43 0 0.0 2.0 0.00 0.00 0.00 48 1028.0
20230129013054 43 89 0.0 1.0 0.00 0.00 0.00 48 1027.9
20230129012545 43 0 0.0 1.0 0.00 0.00 0.00 48 1027.8
20230129012046 44 0 0.0 2.0 0.00 0.00 0.00 48 1027.7
20230129011551 44 0 0.0 2.0 0.00 0.00 0.00 47 1027.8
20230129011046 44 316 0.0 1.0 0.00 0.00 0.00 47 1027.7
20230129010546 44 0 0.0 1.0 0.00 0.00 0.00 46 1027.7
20230129010051 45 0 0.0 1.0 0.00 0.00 0.00 46 1027.6
20230129005547 45 0 0.0 1.0 0.00 0.00 0.00 46 1027.5
20230129005046 44 337 0.0 1.0 0.00 0.00 0.00 46 1027.4
20230129004555 45 0 0.0 1.0 0.00 0.00 0.00 46 1027.4
20230129004047 45 0 0.0 1.0 0.00 0.00 0.00 47 1027.5
20230129003543 45 0 0.0 1.0 0.00 0.00 0.00 47 1027.4
20230129003049 44 336 0.0 1.0 0.00 0.00 0.00 46 1027.5
20230129002546 44 0 0.0 1.0 0.00 0.00 0.00 47 1027.6
20230129002046 45 0 0.0 1.0 0.00 0.00 0.00 47 1027.5
20230129001553 46 0 0.0 1.0 0.00 0.00 0.00 46 1027.5
20230129001046 46 0 0.0 3.0 0.00 0.00 0.00 45 1027.6
20230129000546 46 337 0.0 3.0 0.00 0.00 0.00 44 1027.4
20230129000100 46 337 0.0 4.0 0.00 0.00 0.00 45 1027.3
20230128235543 46 308 0.0 4.0 0.00 0.00 0.00 44 1027.3
20230128235044 46 309 0.0 1.0 0.00 0.00 0.00 44 1027.3
20230128234554 46 65 0.0 0.0 0.00 0.00 0.00 44 1027.3
20230128234044 46 0 0.0 0.0 0.00 0.00 0.00 43 1027.3
20230128233544 47 0 0.0 0.0 0.00 0.00 0.00 42 1027.2
20230128233103 47 0 0.0 1.0 0.00 0.00 0.00 42 1027.2
20230128232545 47 0 0.0 1.0 0.00 0.00 0.00 42 1027.2
20230128232044 48 0 0.0 1.0 0.00 0.00 0.00 41 1027.2
20230128231622 48 0 0.0 1.0 0.00 0.00 0.00 40 1027.2
20230128231048 49 0 0.0 1.0 0.00 0.00 0.00 39 1027.2
20230128230543 49 0 0.0 1.0 0.00 0.00 0.00 39 1027.2
20230128230103 50 0 0.0 4.0 0.00 0.00 0.00 38 1027.1
20230128225548 50 65 0.0 4.0 0.00 0.00 0.00 39 1027.0
20230128225046 51 23 0.0 4.0 0.00 0.00 0.00 37 1027.1
20230128224558 51 340 0.0 4.0 0.00 0.00 0.00 36 1027.1
20230128224048 52 0 0.0 1.0 0.00 0.00 0.00 35 1027.0
20230128223546 53 0 0.0 2.0 0.00 0.00 0.00 34 1026.9
20230128223052 54 0 0.0 5.0 0.00 0.00 0.00 33 1027.0
20230128222544 54 68 1.0 5.0 0.00 0.00 0.00 32 1026.8
20230128222044 55 80 2.0 6.0 0.00 0.00 0.00 31 1026.7
20230128221605 56 98 1.0 7.0 0.00 0.00 0.00 29 1026.6
20230128221044 56 60 0.0 7.0 0.00 0.00 0.00 29 1026.6
20230128220544 58 89 1.0 5.0 0.00 0.00 0.00 30 1026.7
20230128220052 58 110 1.0 5.0 0.00 0.00 0.00 31 1026.7
20230128215543 58 72 1.0 5.0 0.00 0.00 0.00 31 1026.6
20230128215046 58 77 0.0 4.0 0.00 0.00 0.00 30 1026.5
20230128214549 58 109 1.0 4.0 0.00 0.00 0.00 30 1026.6
20230128214045 58 105 1.0 3.0 0.00 0.00 0.00 32 1026.6
20230128213544 58 88 0.0 5.0 0.00 0.00 0.00 34 1026.6
20230128213054 58 89 2.0 5.0 0.00 0.00 0.00 33 1026.6
20230128212544 58 38 0.0 3.0 0.00 0.00 0.00 32 1026.5
20230128212044 57 277 0.0 3.0 0.00 0.00 0.00 35 1026.5
20230128211555 57 99 0.0 3.0 0.00 0.00 0.00 35 1026.4
20230128211045 57 0 0.0 1.0 0.00 0.00 0.00 37 1026.5
20230128210546 57 0 0.0 1.0 0.00 0.00 0.00 35 1026.4
20230128210106 56 0 0.0 1.0 0.00 0.00 0.00 36 1026.5
20230128205544 56 0 0.0 4.0 0.00 0.00 0.00 36 1026.6
20230128205043 56 0 2.0 4.0 0.00 0.00 0.00 33 1026.7
20230128204559 57 96 1.0 5.0 0.00 0.00 0.00 32 1026.6
20230128204044 58 102 0.0 5.0 0.00 0.00 0.00 33 1026.6
20230128203544 58 65 1.0 5.0 0.00 0.00 0.00 33 1026.5
20230128203049 57 130 1.0 6.0 0.00 0.00 0.00 33 1026.5
20230128202544 58 88 2.0 6.0 0.00 0.00 0.00 32 1026.5
20230128202044 59 98 2.0 5.0 0.00 0.00 0.00 30 1026.5
20230128201553 59 11 1.0 6.0 0.00 0.00 0.00 35 1026.4
20230128201044 59 303 2.0 7.0 0.00 0.00 0.00 32 1026.5
20230128200546 58 41 3.0 7.0 0.00 0.00 0.00 32 1026.5
20230128200059 58 63 2.0 8.0 0.00 0.00 0.00 31 1026.5